Regional Weather Roundup
Issued by NWS Newport/Morehead, NC

Current Version | Previous Version | Graphics & Text | Print | Product List | Glossary Off
Versions: 1 2 3 4 5 6 7 8 9 10 11 12 13 14 15 16 17 18 19 20 21 22 23 24 25 26 27 28 29 30 31 32 33 34 35 36 37 38 39 40 41 42 43 44 45 46 47 48 49 50

000
ASUS42 KMHX 282025
RWRMHX
WEATHER ROUNDUP FOR EASTERN NORTH CAROLINA
NATIONAL WEATHER SERVICE NEWPORT/MOREHEAD CITY NC
400 PM EDT THU MAY 28 2015

NOTE: "FAIR" INDICATES FEW OR NO CLOUDS BELOW 12,000 FEET
WITH NO SIGNIFICANT WEATHER AND/OR OBSTRUCTIONS TO VISIBILITY

NCZ015>017-031-032-045>047-102-103-282100-
NORTH COAST

CITY           SKY/WX    TMP DP  RH WIND       PRES   REMARKS
EDENTON          N/A     83  68  60 SE9       30.19F
ELIZABETH CITY PTSUNNY   83  71  67 SE13      30.20F
KITTY HAWK     PTCLDY    80  62  55 S7        30.21F
MANTEO         PTSUNNY   78  63  59 S10       30.23F

$$

NCZ045>047-081-094-103-104-282100-
CENTRAL COAST

CITY           SKY/WX    TMP DP  RH WIND       PRES   REMARKS
FRISCO         SUNNY     81  61  50 S8        30.24S
SWANQUARTER      N/A     82 N/A N/A SE8       30.18F

$$

NCZ095-097-098-100-101-282100-
SOUTHERN COAST

CITY           SKY/WX    TMP DP  RH WIND       PRES   REMARKS
BEAUFORT       SUNNY     77  63  61 S8        30.22F
CEDAR ISLAND     N/A     81 N/A N/A E9G15     30.27S
JACKSONVILLE   SUNNY     81  63  54 S10       30.20F
PINEY ISLAND   CLEAR    N/A N/A N/A SE8       30.22F
WILMINGTON     SUNNY     80  62  54 SE9       30.21F


$$

NCZ011>013-027>030-043-044-078>080-089-090>093-098-282100-
COASTAL PLAIN

CITY           SKY/WX    TMP DP  RH WIND       PRES   REMARKS
AHOSKIE        SUNNY     83  66  56 S5        30.18F
CLINTON        MOSUNNY   84  69  60 S5        30.18F
ELIZABETHTOWN  MOSUNNY   84  65  53 SE6       30.18F
GOLDSBORO      PTSUNNY   85  66  53 CALM      30.15F
GREENVILLE     MOSUNNY   86  68  54 S7        30.19F
HAVELOCK       MOSUNNY   81  63  54 S5        30.22F
KENANSVILLE    MOSUNNY   85  65  51 SE5       30.19F
KINSTON        MOSUNNY   86  64  48 S6        30.19F
NEW BERN       MOSUNNY   84  65  52 SE9       30.21F
RICHLANDS      MOSUNNY   84  63  48 SE9       30.20S
ROCKY MOUNT    MOSUNNY   87  68  52 S7        30.18F
WASHINGTON     MOSUNNY   84  67  56 S6        30.19F
WHITEVILLE     MOSUNNY   83  65  54 SE9       30.19S

$$

AMZ130-135-150-152-154-156-158-170-250-252-270-ANZ085-086-088-633-658-670-282100-
MARINE OBSERVATIONS

STATION/POSITION TIME  TEMP    WIND        PRES    WAVE   SWELL
                       AIR SEA DIR/SP/G            HT/PER HT/PER
                 (UTC) (F)     (DEG/KT/KT) (MB)    (FT/S) (FT/S)
CHESAPEAKE LIGHT 2000   69     170/ 25/ 26 1022.5
64 E VA BEACH    1950   68 66  180/  6/  6 1023.4    3/ 8   2/ 8
DUCK             2000   69 57  140/ 14/ 15 1022.2
2 E DUCK         1911      62                N/A     2/ 7
OREGON INLET     2000   76 78  200/  9/ 11 1023.8
13E OREGON INLT  2000      72                N/A     3/ 8
HATTERAS CG      2000   77 76  160/  7/  9 1023.4
DIAMOND BUOY     1950   75 78  130/  8/ 10 1023.8    3/ 8   3/ 8
CAPE LOOKOUT     2000   75     150/  4/  5 1023.2
BEAUFORT LAB     2000   76 76  190/  8/ 10 1022.6
27 SE WRIGHTSVLE 2000      77  140/  4/  6   N/A
5 SE WRIGHTSVLE  1908   76 79  140/  6/ 10 1023.6
225 S CAPE HAT   1950   74 74   40/ 16/ 17 1022.0    6/ 8   5/ 8
41 SE CHARLESTON 1950   77 79   90/ 10/ 12 1022.2    3/ 8   3/ 8

$$


USA.gov is the U.S. government's official web portal to all federal, state and local government web resources and services.